Location: Maddington
(51.2000°N, 1.9167°W)
Time: 02:18:02
(UTC+00:00)

Cosmos 2082 Rocket - Pass Details

Date: 18 September 2020
Orbit: 834 x 853 km, 71.0° (Epoch: 30 October)

Event Time Altitude Azimuth Distance (km) Brightness Sun altitude
Rises 20:37:56 0° 331° (NNW) 3,394 6.4 -22.1°
Reaches altitude 10° 20:40:39 10° 341° (NNW) 2,456 5.3 -22.4°
Maximum altitude 20:45:41 33° 45° (NE) 1,390 3.2 -23.1°
Enters shadow 20:46:37 31° 64° (ENE) 1,439 3.1 -23.2°
